China Lake, CA

5:36 AM PDT on March 25, 2017 (GMT -0700)
China Lake NAWS

Weather History for KNID - August, 2013

Change the Weather History Date:

Wednesday, August 7, 2013

  Actual Average Record
Temperature  
Mean Temperature 88 °F -  
Max Temperature 102 °F 100 °F 111 °F (1997)
Min Temperature 73 °F 71 °F 59 °F (2002)
Cooling Degree Days 22    
Growing Degree Days 38 (Base 50)    
Moisture  
Dew Point 32 °F    
Average Humidity 16    
Maximum Humidity 27    
Minimum Humidity 6    
Precipitation  
Precipitation 0.00 in - - ()
Sea Level Pressure  
Sea Level Pressure 29.83 in    
Wind  
Wind Speed 15 mph (SSW)    
Max Wind Speed 30 mph    
Max Gust Speed 39 mph    
Visibility 10 miles    
Events      
Averages and records for this station are not official NWS values.
T = Trace of Precipitation, MM = Missing Value Source: NWS Daily Summary

Daily Weather History Graph

Daily Weather History Graph

Search for Another Location

Airport or City:

Trip Planner

Search our weather history database for the weather conditions in past years. The results will help you decide how hot, cold, wet, or windy it might be!

Date:

Astronomy

Aug. 07, 2013 Rise Set
Actual Time 6:03 AM PDT 7:48 PM PDT
Civil Twilight 5:36 AM PDT 8:16 PM PDT
Nautical Twilight 5:02 AM PDT 8:49 PM PDT
Astronomical Twilight 4:27 AM PDT 9:24 PM PDT
Moon 6:52 AM PDT (8/7) 8:03 PM PDT (8/7)
Length of Visible Light 14h 40m
Length of Day
13h 45m
New Moon, 1% of the Moon is Illuminated
Aug 7
New Moon
Aug 14
First Quarter
Aug 20
Full
Aug 28
Last Quarter
Sep 5
New

Hourly Weather History & Observations

Time (PDT) Temp. Dew Point Humidity Pressure Visibility Wind Dir Wind Speed Gust Speed Precip Events Conditions
12:56 AM 82.9 °F 37.0 °F 19% 29.84 in 10.0 mi South 15.0 mph - N/A   Clear
1:56 AM 80.1 °F 37.9 °F 22% 29.84 in 10.0 mi South 13.8 mph - N/A   Clear
2:56 AM 79.0 °F 37.9 °F 23% 29.84 in 10.0 mi South 18.4 mph - N/A   Clear
3:56 AM 79.0 °F 37.9 °F 23% 29.83 in 10.0 mi South 13.8 mph - N/A   Clear
4:56 AM 78.1 °F 37.0 °F 23% 29.84 in 10.0 mi South 12.7 mph - N/A   Clear
5:56 AM 77.0 °F 39.0 °F 25% 29.85 in 10.0 mi South 11.5 mph - N/A   Partly Cloudy
6:56 AM 73.0 °F 37.0 °F 27% 29.87 in 10.0 mi SW 5.8 mph - N/A   Partly Cloudy
7:56 AM 80.1 °F 42.1 °F 26% 29.89 in 10.0 mi South 9.2 mph - N/A   Partly Cloudy
9:56 AM 87.1 °F 39.0 °F 18% 29.89 in 10.0 mi Calm Calm - N/A   Partly Cloudy
10:56 AM 91.9 °F 36.0 °F 14% 29.88 in 10.0 mi Variable 4.6 mph - N/A   Clear
11:56 AM 99.0 °F 26.1 °F 8% 29.86 in 10.0 mi SW 12.7 mph 20.7 mph N/A   Clear
12:56 PM 100.9 °F 23.0 °F 6% 29.84 in 10.0 mi SSW 18.4 mph 27.6 mph N/A   Clear
1:56 PM 102.0 °F 24.1 °F 6% 29.82 in 10.0 mi SSW 20.7 mph 32.2 mph N/A   Clear
2:56 PM 100.9 °F 26.1 °F 7% 29.81 in 10.0 mi SW 24.2 mph 38.0 mph N/A   Clear
3:56 PM 100.0 °F 21.9 °F 6% 29.79 in 10.0 mi SW 29.9 mph 39.1 mph N/A   Clear
4:56 PM 99.0 °F 21.0 °F 6% 29.78 in 10.0 mi SSW 27.6 mph 38.0 mph N/A   Clear
5:56 PM 96.1 °F 25.0 °F 8% 29.78 in 10.0 mi SSW 27.6 mph 38.0 mph N/A   Clear
6:56 PM 93.0 °F 23.0 °F 8% 29.79 in 10.0 mi SSW 20.7 mph 28.8 mph N/A   Clear
7:56 PM 87.1 °F 27.0 °F 11% 29.80 in 10.0 mi SSW 20.7 mph 29.9 mph N/A   Clear
8:56 PM 84.0 °F 32.0 °F 15% 29.81 in 10.0 mi SW 11.5 mph - N/A   Clear
9:56 PM 81.0 °F 32.0 °F 17% 29.83 in 10.0 mi SSW 12.7 mph 25.3 mph N/A   Clear
10:56 PM 80.1 °F 36.0 °F 20% 29.82 in 10.0 mi SSW 19.6 mph 25.3 mph N/A   Clear
11:56 PM 75.9 °F 37.0 °F 24% 29.82 in 10.0 mi SSW 11.5 mph - N/A   Clear